Change the Weather History Date:

Monday, December 16, 2013

  Actual Average Record
Temperature  
Mean Temperature 5 °F -  
Max Temperature 14 °F 30 °F 52 °F (1984)
Min Temperature -4 °F 22 °F -4 °F (2013)
Degree Days  
Heating Degree Days 60    
Moisture  
Dew Point 2 °F    
Average Humidity 80    
Maximum Humidity 88    
Minimum Humidity 70    
Precipitation  
Precipitation 0.00 in - - ()
Sea Level Pressure  
Sea Level Pressure 30.03 in    
Wind  
Wind Speed 7 mph (East)    
Max Wind Speed 16 mph    
Max Gust Speed 24 mph    
Visibility 8 miles    
Events Snow    
Averages and records for this station are not official NWS values.
T = Trace of Precipitation, MM = Missing Value Source: NWS Daily Summary

Daily Weather History Graph

Daily Weather History Graph

Search for Another Location

Airport or City:

Trip Planner

Search our weather history database for the weather conditions in past years. The results will help you decide how hot, cold, wet, or windy it might be!

Date:

Astronomy

Dec. 16, 2013 Rise Set
Actual Time 8:14 AM EST 4:54 PM EST
Civil Twilight 7:39 AM EST 5:29 PM EST
Nautical Twilight 7:01 AM EST 6:07 PM EST
Astronomical Twilight 6:25 AM EST 6:43 PM EST
Moon 4:47 PM EST (12/16) 7:18 AM EST (12/16)
Length of Visible Light 9h 49m
Length of Day
8h 40m
Full, 100% of the Moon is Illuminated
Dec 16
Full
Dec 17
Full
Dec 25
Last Quarter
Jan 1
New
Jan 7
First Quarter

Hourly Weather History & Observations

Time (EST) Temp. Windchill Dew Point Humidity Pressure Visibility Wind Dir Wind Speed Gust Speed Precip Events Conditions
12:14 AM 5.4 °F -7.6 °F 1.0 °F 82% 29.97 in 10.0 mi North 8.1 mph - N/A   Clear
12:34 AM 4.8 °F -8.3 °F 0.7 °F 83% 29.97 in 10.0 mi North 8.1 mph - N/A   Clear
12:54 AM 4.1 °F -6.7 °F -0.0 °F 83% 29.98 in 10.0 mi North 5.8 mph - N/A   Clear
1:14 AM 3.9 °F -6.9 °F -0.2 °F 83% 29.99 in 7.0 mi North 5.8 mph - N/A   Mostly Cloudy
1:34 AM 4.6 °F -8.5 °F 0.3 °F 82% 30.00 in 5.0 mi North 8.1 mph - N/A Snow Light Snow
1:54 AM 4.1 °F -8.0 °F -0.4 °F 82% 30.00 in 7.0 mi NNE 6.9 mph - N/A   Mostly Cloudy
2:14 AM 3.2 °F -12.2 °F -1.8 °F 80% 30.01 in 10.0 mi NNE 10.4 mph - N/A   Clear
2:34 AM 2.8 °F -11.7 °F -2.0 °F 80% 30.02 in 10.0 mi NE 9.2 mph - N/A   Clear
2:54 AM 2.3 °F -11.4 °F -2.4 °F 81% 30.03 in 10.0 mi NNE 8.1 mph - N/A   Clear
3:14 AM 1.9 °F -12.9 °F -2.6 °F 81% 30.04 in 10.0 mi NNE 9.2 mph - N/A   Clear
3:34 AM 1.4 °F -11.3 °F -2.7 °F 83% 30.04 in 10.0 mi NNE 6.9 mph - N/A   Clear
3:54 AM 1.4 °F -12.5 °F -2.9 °F 82% 30.05 in 10.0 mi NNE 8.1 mph - N/A   Clear
4:15 AM 1.2 °F -13.7 °F -3.1 °F 82% 30.05 in 10.0 mi NNE 9.2 mph - N/A   Clear
4:34 AM 1.0 °F -14.0 °F -3.8 °F 80% 30.05 in 10.0 mi NNE 9.2 mph - N/A   Clear
4:54 AM 0.5 °F -12.3 °F -3.8 °F 82% 30.05 in 10.0 mi NNE 6.9 mph - N/A   Clear
5:15 AM 0.5 °F -11.0 °F -3.5 °F 83% 30.05 in 10.0 mi NNE 5.8 mph - N/A   Clear
5:34 AM 0.1 °F -12.8 °F -4.0 °F 83% 30.05 in 10.0 mi NNE 6.9 mph - N/A   Scattered Clouds
5:54 AM 0.5 °F -9.3 °F -3.3 °F 84% 30.06 in 7.0 mi NNE 4.6 mph - N/A Snow Light Snow
6:15 AM -0.2 °F -14.4 °F -4.2 °F 83% 30.07 in 10.0 mi NE 8.1 mph - N/A   Mostly Cloudy
6:34 AM -0.4 °F -13.4 °F -4.9 °F 81% 30.07 in 10.0 mi NE 6.9 mph - N/A   Scattered Clouds
6:54 AM -0.9 °F -14.1 °F -5.4 °F 81% 30.07 in 10.0 mi NE 6.9 mph - N/A   Clear
7:15 AM -0.0 °F -9.9 °F -5.3 °F 79% 30.08 in 10.0 mi NE 4.6 mph - N/A   Clear
7:34 AM -2.7 °F -11.0 °F -7.2 °F 81% 30.08 in 10.0 mi NE 3.5 mph - N/A   Clear
7:54 AM -4.5 °F -15.2 °F -8.7 °F 82% 30.09 in 10.0 mi NNE 4.6 mph - N/A   Clear
8:15 AM -3.5 °F -13.9 °F -7.2 °F 84% 30.10 in 10.0 mi NNE 4.6 mph - N/A   Clear
8:34 AM -3.6 °F -15.9 °F -7.4 °F 84% 30.10 in 2.0 mi NNE 5.8 mph - N/A   Clear
8:54 AM -1.5 °F -11.6 °F -5.3 °F 84% 30.10 in 10.0 mi NNE 4.6 mph - N/A   Clear
9:14 AM 0.9 °F -10.5 °F -3.1 °F 83% 30.11 in 10.0 mi NE 5.8 mph - N/A   Clear
9:34 AM 2.3 °F -5.2 °F -3.3 °F 77% 30.11 in 10.0 mi ENE 3.5 mph - N/A   Clear
9:55 AM 4.6 °F - -1.5 °F 76% 30.12 in 10.0 mi Calm Calm - N/A   Clear
10:14 AM 6.1 °F - -0.0 °F 76% 30.12 in 10.0 mi Calm Calm - N/A   Clear
10:34 AM 6.4 °F -0.5 °F 0.3 °F 76% 30.12 in 10.0 mi SE 3.5 mph - N/A   Clear
10:55 AM 7.7 °F 1.0 °F 1.6 °F 76% 30.12 in 10.0 mi SSE 3.5 mph - N/A   Clear
11:14 AM 7.7 °F - 2.7 °F 80% 30.12 in 1.0 mi Calm Calm - N/A Snow Light Snow
11:34 AM 8.4 °F -0.1 °F 4.1 °F 83% 30.11 in 1.0 mi SE 4.6 mph - N/A Snow Light Snow
11:55 AM 8.6 °F -2.6 °F 3.7 °F 81% 30.09 in 2.0 mi SE 6.9 mph - N/A Snow Light Snow
12:14 PM 8.6 °F 2.0 °F 4.1 °F 82% 30.09 in 1.8 mi SE 3.5 mph - N/A Snow Light Snow
12:34 PM 9.3 °F -0.5 °F 4.6 °F 81% 30.08 in 2.5 mi SE 5.8 mph - N/A Snow Light Snow
12:54 PM 10.0 °F 0.4 °F 4.8 °F 79% 30.08 in 4.0 mi SSE 5.8 mph - N/A Snow Light Snow
1:14 PM 10.2 °F 3.8 °F 4.8 °F 79% 30.07 in 5.0 mi SSE 3.5 mph - N/A Snow Light Snow
1:34 PM 10.0 °F 3.6 °F 4.6 °F 79% 30.06 in 10.0 mi ESE 3.5 mph - N/A Snow Light Snow
1:54 PM 10.2 °F 2.0 °F 4.1 °F 76% 30.06 in 10.0 mi South 4.6 mph - N/A   Mostly Cloudy
2:14 PM 10.6 °F 4.3 °F 3.7 °F 74% 30.06 in 10.0 mi ESE 3.5 mph - N/A   Scattered Clouds
2:35 PM 10.8 °F 2.7 °F 3.9 °F 74% 30.06 in 10.0 mi SE 4.6 mph - N/A   Clear
2:54 PM 10.4 °F -0.4 °F 4.1 °F 76% 30.05 in 10.0 mi ESE 6.9 mph - N/A   Scattered Clouds
3:14 PM 11.3 °F 1.9 °F 4.1 °F 73% 30.05 in 10.0 mi SE 5.8 mph - N/A   Clear
3:35 PM 10.8 °F 4.5 °F 3.7 °F 73% 30.05 in 10.0 mi SE 3.5 mph - N/A   Clear
3:54 PM 11.5 °F -0.2 °F 3.7 °F 71% 30.05 in 10.0 mi SE 8.1 mph - N/A   Clear
4:14 PM 11.1 °F 1.7 °F 3.2 °F 70% 30.05 in 10.0 mi SE 5.8 mph - N/A   Clear
4:35 PM 10.9 °F 1.4 °F 3.6 °F 72% 30.05 in 10.0 mi SE 5.8 mph - N/A   Clear
4:54 PM 10.4 °F 0.8 °F 3.4 °F 73% 30.04 in 10.0 mi SE 5.8 mph - N/A   Clear
5:14 PM 10.2 °F 0.6 °F 3.7 °F 75% 30.05 in 10.0 mi SE 5.8 mph - N/A   Clear
5:34 PM 10.4 °F -0.4 °F 3.9 °F 75% 30.04 in 10.0 mi SE 6.9 mph - N/A   Clear
5:54 PM 10.9 °F 0.2 °F 4.8 °F 76% 30.03 in 10.0 mi SE 6.9 mph - N/A   Scattered Clouds
6:14 PM 11.1 °F 0.4 °F 4.8 °F 76% 30.02 in 10.0 mi ESE 6.9 mph - N/A   Scattered Clouds
6:34 PM 11.7 °F -0.9 °F 5.0 °F 75% 30.01 in 10.0 mi SE 9.2 mph - N/A   Mostly Cloudy
6:54 PM 12.2 °F -1.8 °F 5.5 °F 75% 30.01 in 10.0 mi SE 11.5 mph - N/A   Overcast
7:14 PM 12.6 °F -0.6 °F 5.9 °F 75% 30.00 in 10.0 mi SE 10.4 mph - N/A   Overcast
7:34 PM 12.7 °F -1.8 °F 6.6 °F 77% 29.98 in 10.0 mi ESE 12.7 mph 19.6 mph N/A   Overcast
7:54 PM 12.6 °F -2.0 °F 7.3 °F 80% 29.98 in 10.0 mi SE 12.7 mph 17.3 mph N/A   Overcast
8:14 PM 13.1 °F -1.4 °F 6.8 °F 76% 29.97 in 10.0 mi SE 12.7 mph 17.3 mph N/A   Overcast
8:34 PM 13.1 °F -1.4 °F 6.6 °F 75% 29.96 in 10.0 mi SE 12.7 mph 19.6 mph N/A   Overcast
8:54 PM 13.1 °F -1.4 °F 7.5 °F 78% 29.95 in 10.0 mi SSE 12.7 mph 19.6 mph N/A   Overcast
9:15 PM 13.1 °F -1.4 °F 7.5 °F 78% 29.94 in 4.0 mi SSE 12.7 mph 23.0 mph N/A Snow Light Snow
9:34 PM 13.6 °F -0.7 °F 9.5 °F 84% 29.94 in 1.8 mi SSE 12.7 mph 24.2 mph N/A Snow Light Snow
9:54 PM 13.6 °F -2.4 °F 10.2 °F 86% 29.93 in 1.2 mi SSE 16.1 mph 24.2 mph N/A Snow Light Snow
10:14 PM 13.8 °F -1.1 °F 10.8 °F 88% 29.93 in 1.8 mi South 13.8 mph 23.0 mph N/A Snow Light Snow
10:34 PM 14.2 °F -1.2 °F 11.1 °F 88% 29.92 in 1.2 mi SSE 15.0 mph 23.0 mph N/A Snow Snow
10:55 PM 14.7 °F 0.7 °F 11.7 °F 88% 29.92 in 2.0 mi SSE 12.7 mph 21.9 mph N/A Snow Light Snow
11:14 PM 14.7 °F -0.5 °F 11.3 °F 86% 29.91 in 4.0 mi South 15.0 mph 21.9 mph N/A Snow Light Snow
11:34 PM 14.7 °F 2.1 °F 11.5 °F 87% 29.90 in 4.0 mi South 10.4 mph 23.0 mph N/A Snow Light Snow
11:55 PM 14.9 °F -0.3 °F 11.7 °F 87% 29.89 in 4.0 mi SSE 15.0 mph 23.0 mph N/A Snow Light Snow